Wind_Speed
16 15 13 11 11 11 11 12 12 13 12 14 17 19 20 21 23 24 26 27 27 28 27 27 25 23 23 23 24 24 24 26 26 26 26 26 26 26 27 27 28 28 29 30 30 31 31 31 31 31 31 31 32 32 32 32 31 30 30 30 30 30 30 29 29 30 31 33 32 32 31 29 28 27 26 25 23 22 20 20 17 14 14 15 15
15 14 12 11 10 10 10 11 12 12 11 12 16 19 21 22 24 25 27 27 28 28 27 27 25 24 24 24 24 24 24 25 25 24 24 24 24 25 25 26 26 27 27 28 29 30 30 30 30 30 30 31 32 32 31 32 31 31 31 31 31 31 31 30 28 29 31 32 31 32 33 30 28 27 25 24 22 21 21 20 18 15 16 18 16
15 14 12 11 10 9 9 10 10 9 9 9 12 18 21 22 23 25 27 28 28 27 26 26 26 26 26 26 25 24 24 23 23 22 22 22 23 23 24 24 25 26 27 28 29 30 30 31 31 30 30 30 31 32 32 32 32 31 31 32 32 32 32 31 30 30 31 31 28 28 29 27 26 24 22 21 21 20 20 19 17 17 19 19 18
15 14 13 11 10 9 8 10 9 6 6 7 11 18 20 20 23 27 30 31 29 25 25 26 26 27 28 28 27 26 25 24 23 23 22 22 22 23 24 24 25 26 27 28 29 30 32 32 33 32 32 31 31 32 32 32 32 32 32 32 33 33 33 32 31 30 30 29 25 22 20 18 19 20 19 20 19 18 18 18 18 20 21 21 20
15 14 13 12 12 10 8 9 8 5 6 7 13 17 18 21 26 30 32 33 30 26 27 28 28 29 30 30 30 29 28 27 26 26 25 24 24 24 24 24 25 26 27 28 29 30 31 32 33 34 34 33 32 32 32 32 32 33 33 34 34 35 35 34 32 30 30 30 27 25 19 15 16 17 18 18 16 16 18 19 21 22 22 22 21
16 15 14 14 13 11 9 9 7 5 6 8 13 16 20 26 31 32 33 33 31 28 30 31 30 30 31 33 33 32 31 30 28 29 29 29 27 27 26 25 25 26 27 28 29 30 30 31 32 34 35 36 35 34 33 33 33 34 34 35 36 36 35 36 36 33 31 31 31 32 29 24 23 20 18 17 17 19 20 21 23 23 23 23 21
18 15 15 14 14 13 11 10 6 4 5 9 15 20 25 31 34 33 33 33 33 32 31 31 30 29 30 33 35 35 35 34 32 30 30 30 30 29 28 27 27 27 28 28 29 30 31 32 33 34 35 36 36 36 35 34 34 35 35 36 37 37 36 37 39 36 34 34 33 34 34 33 32 29 26 23 22 22 22 22 23 23 23 23 23
19 16 15 14 14 14 13 9 5 4 7 13 19 25 31 34 34 33 33 34 35 34 32 31 29 28 30 33 35 36 37 38 37 33 31 30 30 30 30 31 31 30 29 28 29 31 32 33 34 35 36 36 36 37 37 36 35 35 35 36 37 38 38 38 39 38 37 36 35 34 34 35 34 34 34 30 27 28 28 26 24 24 24 25 25
20 17 15 15 14 15 12 7 5 7 12 18 24 30 33 34 33 34 34 35 34 34 33 31 29 29 31 34 36 37 39 39 39 37 35 33 33 33 33 33 34 33 31 30 30 31 32 33 34 36 37 37 37 38 38 37 36 36 35 36 38 38 39 39 40 39 39 38 37 36 35 35 35 35 35 35 32 31 33 32 29 27 28 26 24
21 18 17 17 15 14 9 5 7 11 17 23 28 31 32 32 33 35 36 36 36 35 34 33 32 32 35 37 38 39 40 40 39 39 37 36 36 36 36 35 35 35 34 33 32 32 32 33 34 35 37 37 38 39 39 39 38 37 36 36 37 39 40 40 41 41 40 40 39 39 38 37 36 36 36 35 34 32 33 34 31 29 30 29 26
20 19 19 17 14 11 6 6 11 16 21 26 28 29 29 31 34 37 38 38 38 37 36 35 35 36 38 39 39 40 41 40 40 39 38 37 38 39 39 38 37 36 36 35 35 34 32 32 33 35 36 37 38 38 39 40 40 40 38 37 38 39 40 41 42 42 41 41 41 40 41 40 38 37 37 35 34 34 33 33 31 29 30 31 29
20 21 19 14 12 10 8 11 17 20 24 26 26 28 30 33 37 41 41 39 37 37 36 36 36 37 38 40 41 42 41 40 40 40 39 38 39 41 41 40 38 38 38 37 36 34 33 32 32 34 35 36 37 37 38 40 41 41 41 40 39 40 41 41 42 43 42 42 43 42 42 42 41 40 38 35 34 34 33 33 32 28 30 32 30
22 20 15 12 12 13 14 17 20 22 25 27 28 30 33 36 41 42 41 38 36 36 37 37 38 37 37 38 41 42 42 41 40 41 41 41 41 42 42 42 41 40 39 39 37 34 34 33 32 32 33 35 36 37 39 39 41 42 42 42 41 41 41 42 43 44 43 43 43 43 42 42 43 42 39 36 35 34 32 33 32 28 30 32 30
20 15 12 12 13 16 18 19 21 24 27 28 30 32 35 39 42 42 39 38 38 39 39 38 39 38 38 38 39 41 41 40 40 41 42 43 42 43 44 43 42 41 40 40 38 35 35 35 33 32 32 33 35 37 38 39 40 42 43 43 43 42 42 43 43 43 43 43 43 43 43 43 44 43 40 39 37 36 34 33 31 29 30 31 31
16 13 12 14 16 18 19 20 23 27 28 29 31 33 36 40 43 42 41 42 43 43 42 40 40 40 40 39 37 37 39 39 40 41 41 41 43 45 45 43 41 41 41 40 39 37 37 38 36 34 33 31 33 35 37 39 41 42 43 44 44 43 42 43 44 43 43 44 44 44 44 44 44 44 42 40 39 39 38 35 32 31 30 31 32
14 14 15 17 19 19 19 22 27 29 29 30 32 34 39 43 45 44 45 45 45 44 44 42 41 41 41 38 35 36 38 39 40 41 40 41 44 44 42 40 40 41 41 41 41 41 41 41 39 37 35 32 32 33 36 39 41 43 44 44 45 44 42 43 43 43 43 43 43 44 44 44 44 44 43 42 40 40 40 38 35 34 32 30 29
15 17 19 21 21 21 23 27 31 32 31 31 33 38 43 46 46 46 47 46 45 45 44 42 39 40 40 38 36 36 38 39 40 40 39 39 40 40 39 40 40 41 43 44 45 45 44 41 39 38 37 34 32 32 34 37 40 43 44 45 45 44 43 43 42 42 42 42 42 43 43 44 44 43 43 42 40 40 39 38 37 35 34 31 27
20 23 23 22 22 24 28 32 33 30 29 32 37 43 45 45 45 47 48 47 46 46 42 39 39 40 41 39 38 38 39 39 39 38 38 38 40 41 43 43 43 44 46 46 48 48 45 41 39 39 37 35 33 32 33 36 38 42 44 45 45 44 43 42 42 42 42 41 41 42 43 43 43 43 43 43 41 39 38 37 36 35 34 33 30
27 25 22 22 24 27 31 33 30 27 30 36 43 47 47 46 47 47 47 47 45 42 40 41 42 41 39 38 37 36 36 37 37 37 38 40 42 43 43 43 43 44 45 45 47 47 43 40 39 38 36 34 34 33 34 35 37 41 43 45 45 43 42 42 42 42 41 41 41 42 42 42 42 42 43 43 42 40 38 36 35 35 34 34 33
27 21 21 25 27 30 32 31 28 29 35 42 47 49 47 47 47 47 47 45 41 39 41 44 43 38 36 35 35 35 36 37 37 36 37 37 38 38 38 39 40 41 42 43 43 41 38 37 36 35 35 34 34 34 35 35 37 39 42 44 44 43 42 42 41 41 41 41 41 41 42 41 41 41 41 42 42 40 38 37 36 36 35 35 34
23 21 25 27 30 32 31 28 29 35 41 46 49 47 45 46 46 46 44 42 41 43 44 42 38 36 37 38 39 39 39 38 37 36 36 35 35 35 35 36 36 35 33 32 31 32 32 33 35 35 34 33 33 34 35 36 37 39 41 43 43 42 42 41 41 41 41 41 41 41 42 41 40 40 41 41 41 40 38 36 36 36 36 35 34
20 23 26 29 33 33 29 29 34 40 45 49 48 45 45 46 45 45 44 43 43 44 41 38 38 41 43 42 41 40 39 36 35 33 33 33 33 33 33 33 33 30 28 27 29 32 34 36 36 36 34 32 33 34 35 37 38 39 40 42 42 41 41 41 40 41 41 40 40 41 42 41 39 39 40 40 40 39 37 35 34 35 36 36 35
22 24 26 31 34 31 29 33 39 44 47 48 46 45 46 45 44 45 46 45 43 40 37 38 44 47 45 42 40 39 37 34 32 30 31 33 34 35 36 36 36 36 36 37 39 39 39 38 37 35 33 32 33 34 35 38 39 39 40 41 41 41 41 41 41 42 41 40 40 41 41 41 39 39 39 38 39 39 37 36 33 33 34 34 34
23 24 29 33 31 29 33 38 43 46 48 47 46 46 45 45 46 47 47 44 39 36 39 45 49 47 43 40 39 39 36 33 32 32 34 36 36 38 40 40 40 41 42 43 43 42 40 39 37 35 32 32 33 34 36 38 39 39 40 40 40 41 41 41 41 42 41 41 40 40 40 40 39 39 39 38 38 39 38 37 34 32 32 32 32
23 26 32 31 29 32 37 40 44 47 48 47 46 46 46 47 48 47 44 39 36 39 47 50 47 42 39 39 38 36 32 30 32 36 39 41 42 42 42 42 42 41 38 37 38 39 37 36 36 34 33 32 33 34 36 38 39 39 39 39 40 41 41 41 42 41 41 40 39 40 40 39 38 39 39 38 37 37 37 37 35 33 32 30 30
24 29 31 29 32 36 39 42 47 48 47 47 46 46 48 49 47 42 37 36 41 47 49 45 40 38 37 36 35 32 30 33 39 44 47 50 50 50 49 48 47 43 39 37 38 38 36 34 34 33 33 34 34 35 36 38 38 38 38 39 39 40 41 41 41 41 41 40 39 39 38 37 36 37 37 37 36 36 36 36 36 34 33 31 30
25 28 30 32 36 38 41 46 48 47 46 45 44 45 48 48 43 36 34 41 48 48 43 39 36 34 34 35 37 38 39 43 48 50 51 52 51 51 51 50 47 45 45 45 44 42 40 38 37 36 36 36 36 36 37 37 37 37 38 38 38 39 40 40 40 40 40 39 39 38 38 37 36 36 36 35 35 35 36 36 36 35 34 32 31
26 29 31 34 37 40 45 47 45 45 45 42 42 45 46 42 37 36 43 48 47 43 38 35 33 35 41 44 46 46 46 47 47 48 48 48 47 46 43 41 39 39 42 43 42 41 42 41 41 40 39 37 37 37 36 36 37 36 36 37 38 38 39 39 39 39 39 39 38 38 38 37 37 36 36 35 34 35 35 36 35 35 34 34 34
29 31 33 34 38 42 45 44 44 45 44 41 44 47 43 38 38 43 49 48 43 38 34 33 39 47 50 50 49 49 49 49 48 47 46 46 46 43 39 37 37 38 40 41 39 40 42 42 42 41 40 38 37 36 35 34 35 36 36 36 37 37 38 38 38 38 38 38 38 38 38 38 38 37 37 36 35 34 35 35 34 33 32 32 32
31 33 34 36 40 43 43 43 44 44 42 42 45 44 40 40 45 48 49 45 39 33 33 41 49 52 50 49 49 49 50 49 48 47 47 46 46 44 41 40 40 41 41 39 36 35 37 38 39 40 39 38 37 35 33 32 33 34 34 35 36 37 37 37 37 38 38 38 37 38 38 38 38 38 38 38 35 33 33 34 34 34 32 29 28
32 33 35 39 42 43 42 43 44 42 40 41 43 41 41 45 48 49 47 42 33 32 40 49 52 50 49 50 50 49 50 49 48 48 48 48 47 45 44 43 42 41 38 33 32 32 34 37 38 39 39 38 36 34 31 29 28 29 31 33 34 35 35 36 36 37 37 37 37 37 37 38 38 38 38 38 34 29 29 30 31 32 32 30 28
33 34 37 41 42 41 42 43 43 41 40 41 43 43 45 48 48 48 45 37 32 38 48 52 50 50 51 50 50 51 51 50 49 49 49 49 48 46 45 45 43 40 36 32 32 34 37 38 37 36 36 36 35 32 29 26 24 24 27 30 31 32 32 32 33 34 34 35 35 36 36 36 36 35 36 37 35 31 28 27 27 27 28 29 28
33 35 38 40 40 40 41 42 42 41 40 41 43 44 46 47 47 47 42 35 38 46 51 51 50 50 50 51 51 52 51 51 50 50 50 49 48 47 46 44 42 39 35 33 33 33 34 34 33 33 34 35 33 30 26 23 22 23 24 26 29 31 30 30 31 31 31 31 31 32 33 33 32 31 32 34 36 35 32 28 25 25 26 26 25
36 37 37 38 40 41 41 40 40 40 40 41 42 44 45 45 45 44 38 36 43 49 51 50 50 50 51 52 52 52 51 51 50 50 50 49 47 46 44 41 39 37 35 34 33 32 32 31 30 31 33 33 30 28 25 22 21 23 23 24 27 30 30 30 31 32 32 30 27 26 28 28 28 29 29 30 33 36 37 35 29 26 27 26 25
37 37 37 38 40 41 41 40 40 39 40 41 43 45 46 45 44 41 37 38 45 49 50 50 50 51 51 52 52 52 51 50 50 50 49 47 45 44 41 38 36 35 35 34 34 34 34 32 30 30 31 30 27 25 23 20 20 22 23 23 25 27 29 30 31 32 32 31 28 25 25 25 24 25 27 28 28 30 35 38 36 32 30 29 28
34 34 36 38 38 38 38 39 39 39 40 41 43 45 46 45 43 40 38 41 46 49 50 50 51 51 51 51 51 51 50 50 50 49 48 45 43 42 39 37 36 35 34 35 35 34 34 33 31 30 29 27 24 22 21 20 20 21 22 23 24 26 27 28 29 29 29 29 28 26 25 25 25 24 24 24 24 25 26 30 34 34 33 31 31
30 31 34 36 35 34 34 36 37 38 38 40 43 45 45 44 43 41 40 43 47 49 49 50 51 51 51 51 49 49 49 49 48 47 46 44 42 40 38 37 37 37 35 36 37 36 34 33 31 28 25 24 23 21 20 19 19 20 21 22 23 25 26 27 27 27 27 27 26 26 26 27 27 26 24 21 22 24 24 25 26 29 31 31 32
29 32 34 35 35 35 35 36 38 38 37 39 43 44 44 43 43 41 42 46 48 48 49 50 50 51 51 50 48 47 47 46 46 45 43 42 40 40 38 37 37 38 37 36 37 36 33 30 29 26 23 23 22 20 18 19 19 19 20 20 22 24 25 25 25 25 26 26 26 26 26 27 28 27 24 21 21 23 26 26 24 25 29 30 31
30 33 34 35 37 37 37 38 39 40 39 41 43 43 43 43 42 42 44 47 48 48 49 50 50 51 50 49 47 45 43 43 43 42 41 41 40 40 39 37 37 37 36 35 36 35 31 29 28 25 22 22 22 20 18 18 18 18 19 20 21 23 25 26 26 26 26 26 27 28 27 28 29 26 21 19 19 23 26 27 23 23 28 30 28
33 35 35 37 39 38 39 40 41 41 41 42 43 43 43 42 42 43 45 47 48 48 48 49 50 50 50 47 45 42 40 40 41 41 41 40 39 40 40 38 37 36 34 34 35 33 30 28 27 25 23 22 22 21 19 17 16 17 18 19 21 24 26 27 28 28 29 29 30 30 31 29 27 25 22 19 20 23 26 27 25 25 28 28 24
35 36 37 40 40 38 38 39 40 42 42 42 43 43 43 43 43 44 46 47 47 47 48 49 49 49 48 46 43 40 39 40 40 42 42 41 39 39 38 38 38 36 33 34 35 32 28 27 26 25 24 23 22 21 20 18 16 16 16 18 20 23 26 27 28 28 29 31 31 32 33 29 26 25 24 22 22 23 25 26 26 26 26 24 20
34 36 39 41 40 39 39 39 40 41 41 41 42 42 43 43 44 45 46 46 46 47 48 49 48 48 47 45 42 39 39 40 42 43 44 42 39 38 38 38 38 35 33 35 34 30 28 27 24 23 24 24 23 22 21 18 16 15 16 17 19 22 24 25 28 30 30 31 32 31 29 27 24 24 24 24 23 23 23 26 26 24 21 19 18
35 37 39 40 39 39 39 40 41 41 41 41 42 42 43 44 44 45 46 46 47 47 48 48 48 47 46 43 41 40 39 41 43 44 44 43 41 40 39 38 35 34 34 34 31 29 29 28 25 22 22 22 21 20 19 17 16 15 16 18 19 21 22 23 26 29 29 28 28 26 24 22 20 21 22 23 24 24 24 26 26 23 19 18 18
35 37 39 39 38 39 40 40 41 41 41 41 41 42 43 44 45 46 46 47 47 47 48 48 47 46 45 43 41 40 40 41 43 44 44 43 42 41 40 37 34 33 33 33 31 30 29 28 26 24 22 20 18 17 15 14 14 14 15 17 20 20 20 22 25 25 23 22 21 19 17 15 14 17 20 22 22 24 25 26 25 23 21 21 20
35 37 37 37 37 39 40 41 40 41 40 40 39 41 43 44 45 45 46 47 48 48 48 47 47 46 45 42 40 41 41 42 43 43 44 43 42 42 41 37 34 33 33 32 32 30 29 28 27 25 22 19 17 15 13 11 11 12 12 14 18 19 18 20 23 20 15 12 12 12 10 9 9 13 17 19 20 21 24 26 25 22 21 23 24
36 37 37 38 38 39 40 41 41 41 40 39 39 39 41 43 44 45 45 46 46 47 47 47 46 45 44 42 41 42 42 43 43 42 43 43 42 42 40 37 34 33 32 32 33 31 29 26 23 23 22 19 14 11 8 6 5 7 8 9 14 16 15 16 20 17 10 5 6 7 8 9 12 13 14 16 19 20 21 24 24 23 21 23 26
35 36 37 38 39 40 41 42 42 41 40 40 39 39 40 42 43 44 45 45 45 46 46 46 45 45 43 41 41 43 43 43 43 43 43 43 42 41 39 36 34 33 32 33 34 32 27 23 22 23 22 16 9 6 7 6 6 5 5 5 8 14 14 14 17 19 14 8 6 6 7 10 12 11 10 11 14 17 19 20 21 21 21 22 25
34 35 36 37 38 39 40 41 41 41 40 40 40 39 40 41 43 44 44 45 45 45 45 45 45 44 42 41 41 42 43 44 44 43 43 43 42 41 38 34 33 32 31 32 34 32 25 21 21 24 22 14 6 5 7 8 9 7 7 7 4 10 16 16 16 18 18 15 12 11 11 11 10 9 9 9 10 11 12 13 13 14 15 17 19
34 34 35 36 37 38 39 40 40 40 40 40 39 40 40 41 43 44 44 45 45 45 44 44 44 42 41 40 41 42 42 43 44 44 44 42 40 39 36 33 32 28 25 27 30 27 22 21 22 23 19 13 7 6 8 10 10 8 5 6 7 3 13 17 14 13 15 15 14 13 13 11 9 9 9 9 8 8 9 9 9 10 11 12 13
34 34 35 35 36 37 39 39 39 39 39 39 39 40 40 41 42 43 43 44 45 45 45 44 43 41 40 40 41 41 42 43 43 43 44 44 40 35 31 31 30 23 17 19 22 20 17 19 21 18 14 11 9 7 9 11 10 7 4 4 6 1 10 14 9 7 9 11 12 13 12 11 11 10 10 10 9 9 10 10 10 10 11 12 13
33 35 36 36 37 37 37 38 38 38 38 39 39 39 40 41 41 42 42 43 43 44 45 44 42 40 39 39 40 41 42 43 42 42 43 44 43 38 30 26 24 17 13 16 18 16 15 15 15 13 12 10 8 8 10 11 9 5 3 2 2 2 8 11 7 5 6 8 9 11 11 11 11 12 11 11 11 10 10 10 10 11 12 13 15
Wind_Direction
82 71 66 57 43 27 20 19 17 19 21 19 18 15 11 6 2 359 355 352 349 346 343 342 340 336 330 327 325 324 323 321 322 324 323 323 326 326 326 326 324 324 323 321 320 319 319 318 316 314 311 306 303 301 299 296 293 293 293 292 290 288 287 286 285 284 282 282 283 283 280 278 278 278 277 278 279 280 281 281 282 278 280 297 303
89 77 69 57 40 25 17 14 10 7 10 13 14 11 7 4 0 357 353 351 348 344 341 341 341 338 334 332 329 326 326 324 325 328 328 328 331 331 330 330 327 327 326 323 322 321 320 319 318 316 312 308 305 302 299 295 292 291 291 290 289 286 285 286 283 279 278 280 285 286 282 279 276 276 276 274 275 276 276 277 279 280 287 296 298
85 73 65 56 41 30 19 12 4 358 2 3 1 1 1 360 357 355 353 349 345 340 338 338 341 341 337 335 332 329 329 328 328 333 333 330 331 332 332 331 328 327 327 324 322 321 319 318 317 315 312 309 306 303 299 295 292 289 289 289 288 284 281 281 279 275 275 278 280 280 282 286 282 276 271 269 272 272 271 274 277 281 286 291 295
75 64 54 50 40 32 23 13 6 357 352 343 352 359 357 354 352 352 352 348 343 337 336 336 338 341 338 335 333 329 329 329 329 333 334 331 330 330 330 329 326 325 325 322 320 320 318 317 316 313 311 309 306 303 300 296 293 289 287 288 286 282 280 280 278 273 271 271 269 269 275 281 280 274 271 269 269 267 265 267 272 275 279 285 289
66 57 48 45 38 30 22 15 7 344 337 345 356 354 346 347 349 349 349 348 344 338 338 337 336 338 337 335 332 327 327 327 327 329 330 330 330 330 330 327 324 323 322 321 319 318 317 317 316 314 311 308 303 302 300 297 293 289 287 287 284 281 281 280 277 273 269 265 259 259 261 261 268 274 277 272 261 257 260 261 265 269 273 277 282
56 54 47 42 35 30 20 14 2 336 348 352 345 338 338 346 349 348 347 348 347 341 338 336 333 333 333 333 332 328 325 324 324 325 325 326 328 329 329 328 325 322 320 319 317 316 315 314 314 313 311 307 303 299 298 296 293 291 289 287 284 282 279 276 275 273 269 265 257 255 255 255 262 269 274 271 262 255 254 256 260 263 268 272 279
55 52 45 38 32 27 14 5 358 345 349 335 329 334 342 347 348 347 346 346 345 342 338 334 329 326 327 328 328 327 325 322 321 319 318 321 322 324 326 327 326 323 320 318 316 314 311 309 308 308 308 306 303 299 296 296 295 293 290 287 285 282 276 272 274 274 269 265 260 256 255 254 255 258 260 266 270 266 256 253 257 261 266 273 278
54 50 43 35 27 23 11 1 359 344 333 331 337 345 347 348 346 346 345 343 343 341 337 332 326 321 321 323 323 324 323 323 322 318 315 315 316 318 321 323 323 320 319 318 316 313 309 306 304 303 302 303 302 300 298 296 294 292 290 287 284 280 275 271 273 272 268 267 264 258 256 254 252 253 255 258 265 268 264 257 257 262 267 272 276
48 47 42 31 22 19 11 0 355 343 340 343 347 349 348 348 347 346 344 342 340 339 335 329 323 318 317 319 319 320 320 320 321 318 315 315 314 314 317 318 318 316 316 317 318 316 311 307 304 301 300 300 299 299 299 296 292 290 290 288 285 281 276 271 270 269 267 267 266 261 257 254 251 250 252 254 256 261 264 263 262 266 270 271 274
43 46 39 27 19 18 12 356 352 349 349 349 349 351 351 351 350 346 343 341 337 336 333 328 324 320 317 317 316 317 318 317 316 314 312 312 311 311 312 312 312 312 312 314 317 319 315 308 303 300 299 299 297 297 297 296 293 290 289 289 287 281 276 271 268 269 266 265 264 261 258 255 250 248 248 249 250 251 256 262 266 270 275 276 278
43 39 29 22 22 25 22 2 357 354 353 354 355 356 354 351 348 342 339 337 335 333 332 328 325 322 319 317 315 314 315 314 312 310 308 307 306 308 309 308 308 309 310 310 312 317 317 310 303 300 299 296 295 295 296 296 295 291 288 287 286 282 277 272 268 267 264 262 261 259 258 256 252 249 248 247 247 248 251 259 264 269 276 278 280
35 27 22 25 30 29 18 3 358 355 355 357 357 354 350 346 342 338 336 335 333 332 330 327 325 323 321 318 315 313 312 310 309 309 307 304 304 305 306 306 306 307 307 306 307 312 314 309 302 299 297 294 293 293 294 294 292 290 286 284 284 283 278 272 268 266 263 259 259 257 257 257 254 252 250 248 250 252 254 259 264 268 272 274 278
24 23 28 31 26 16 6 0 356 354 354 353 352 350 345 342 340 338 337 334 332 330 328 325 322 320 319 318 315 312 310 309 309 309 307 304 303 304 305 306 306 305 303 302 302 305 308 307 300 297 296 295 293 292 291 291 289 286 284 282 281 282 279 273 269 267 264 259 258 258 256 255 255 253 249 245 248 252 253 256 261 264 267 271 276
21 24 27 19 11 4 359 357 354 350 351 351 349 346 341 340 340 339 336 331 328 326 325 324 321 317 315 314 314 312 308 308 310 310 308 305 303 304 304 305 304 302 300 299 299 300 302 303 299 297 299 298 295 292 290 289 287 284 282 280 279 280 278 273 269 266 263 259 257 256 255 255 255 254 250 245 244 246 248 252 257 260 262 267 272
22 18 13 5 2 0 358 356 352 350 351 349 346 342 339 339 339 337 333 328 325 323 321 320 318 316 314 313 313 313 309 308 310 311 309 306 304 304 303 303 303 301 298 298 298 297 299 300 297 295 299 301 297 293 290 288 285 282 279 277 276 277 275 271 268 265 262 259 256 255 254 255 255 254 251 248 244 243 245 248 251 255 259 263 267
14 7 3 1 2 3 359 355 352 351 349 346 343 341 339 338 338 336 333 329 327 324 322 320 317 317 316 315 314 315 313 310 311 311 309 307 304 302 302 303 303 301 299 299 298 297 297 296 292 290 295 301 300 296 292 288 284 280 277 275 274 273 271 269 266 263 261 259 257 255 253 253 254 254 253 251 248 245 245 247 247 249 254 260 265
4 359 359 1 3 2 358 354 352 351 348 344 342 340 338 337 337 335 333 331 329 326 324 324 323 321 320 318 316 316 315 312 312 311 310 308 304 302 304 304 303 302 301 300 299 297 294 290 288 287 291 298 300 298 293 289 284 280 276 273 271 270 267 266 263 261 260 258 256 255 253 253 254 254 253 253 251 249 248 247 246 247 248 252 257
356 354 357 1 1 358 354 352 353 352 347 343 340 338 338 337 335 334 333 331 328 327 328 327 324 322 320 320 318 316 315 313 312 312 311 309 306 305 306 306 304 302 301 299 298 294 289 286 285 285 289 294 296 295 293 288 283 279 275 271 269 266 262 261 260 257 258 257 255 254 253 253 253 253 253 254 253 252 250 247 246 245 246 247 250
353 355 2 3 0 357 354 352 352 349 342 339 338 338 338 336 334 334 332 330 329 329 327 322 320 321 321 321 321 318 316 314 313 312 311 309 308 307 307 306 304 302 300 299 296 290 285 283 283 284 288 292 291 290 289 287 282 277 274 269 265 260 257 257 256 255 255 255 254 254 253 252 252 252 253 254 254 253 251 249 246 244 244 246 248
355 1 3 1 358 355 353 351 347 342 338 338 338 338 337 334 333 332 331 331 331 326 322 320 323 325 324 321 318 315 313 311 310 309 309 309 309 310 309 308 306 304 302 299 293 285 281 281 281 283 288 290 288 286 285 285 281 277 272 267 261 256 254 254 254 254 254 253 252 252 252 252 252 251 252 254 255 255 253 250 247 245 244 245 247
358 1 359 358 356 353 352 348 341 338 338 338 338 337 334 332 332 332 332 332 328 323 323 326 327 324 320 316 313 311 310 308 308 308 308 309 310 310 310 309 309 305 300 294 286 280 280 281 283 287 290 289 286 284 283 282 279 276 272 266 259 254 252 252 252 253 253 252 252 251 252 252 251 251 252 254 255 256 255 252 248 246 245 244 245
358 357 357 356 353 352 349 344 340 339 338 337 337 335 333 332 332 333 333 331 328 327 330 329 323 319 319 319 318 317 317 317 317 315 314 313 311 310 309 307 305 299 293 289 287 287 288 289 292 294 293 290 287 285 283 280 277 275 270 263 257 252 250 250 251 252 252 252 251 251 252 251 250 251 252 253 255 256 256 254 249 246 245 245 245
352 352 354 352 350 350 346 341 339 338 337 336 335 333 333 333 334 334 332 331 331 333 331 324 321 322 325 326 325 325 327 328 325 321 319 317 313 312 313 311 309 305 302 301 300 299 298 297 297 296 293 291 289 287 284 280 276 273 268 261 255 252 251 250 250 252 253 252 252 252 251 250 249 249 250 252 254 256 257 256 253 248 245 245 245
350 352 352 351 350 348 343 339 338 337 336 336 335 335 335 335 335 333 332 334 337 335 328 324 325 328 330 330 329 330 332 328 319 315 317 316 313 313 315 315 314 311 310 309 305 301 299 298 297 296 293 291 290 290 286 281 277 272 266 259 255 252 251 250 250 252 253 253 252 251 251 250 249 249 250 251 252 254 256 256 254 250 246 245 246
353 352 350 350 349 344 341 338 338 337 337 337 336 336 335 334 333 335 337 340 338 331 326 327 330 333 333 333 333 333 332 325 316 312 311 311 310 310 309 309 309 308 310 310 306 301 298 296 296 295 294 294 294 293 288 281 277 272 265 260 256 253 251 250 250 252 252 253 252 251 251 250 250 250 250 250 250 251 253 254 253 251 248 247 247
350 349 349 347 344 341 340 339 338 338 337 336 335 333 332 332 335 341 343 338 330 327 329 333 337 337 336 336 335 329 321 315 312 311 309 307 306 305 303 301 301 299 299 302 303 301 300 298 297 296 296 296 297 296 289 281 275 270 264 260 257 253 251 250 251 252 252 253 252 250 250 249 249 250 250 249 249 249 249 250 250 250 249 249 248
346 347 345 342 341 340 340 339 337 336 335 335 333 332 332 335 341 345 338 330 328 330 335 341 343 339 335 331 324 316 311 310 309 309 309 308 307 305 303 300 297 293 292 296 299 299 298 297 298 298 297 297 298 297 290 280 272 268 263 259 257 253 251 250 251 252 253 253 252 250 249 248 248 248 249 250 250 250 249 248 248 248 248 247 248
344 344 342 341 342 340 338 337 335 334 335 335 333 333 337 342 342 336 331 330 333 338 343 344 338 330 326 324 320 318 318 317 315 315 314 313 313 312 311 310 307 301 296 296 297 294 293 294 295 296 296 297 297 295 287 277 270 266 262 258 256 252 250 250 251 252 253 254 253 251 248 247 246 247 248 249 250 251 250 250 250 249 248 246 246
343 342 341 342 341 338 337 336 335 336 338 336 334 337 342 343 336 332 332 335 340 344 344 337 330 327 326 325 325 326 326 325 323 322 321 319 320 320 321 320 314 305 298 295 293 291 291 292 293 293 293 295 295 291 282 274 269 265 260 257 254 252 250 250 251 253 254 254 253 250 248 247 246 245 246 247 248 249 251 252 252 251 249 246 244
342 341 340 340 339 337 337 336 337 339 339 336 336 340 341 337 334 334 336 340 344 343 336 330 329 329 329 328 328 328 328 328 328 327 326 325 325 324 322 318 311 305 303 302 301 299 298 297 295 292 292 293 292 287 278 272 268 265 261 257 253 251 250 251 252 254 255 254 253 251 250 249 247 246 245 246 247 248 250 251 252 252 250 246 240
340 339 339 338 337 337 337 336 338 339 337 336 338 339 337 336 337 337 338 343 344 333 328 330 331 332 332 331 331 330 331 332 331 331 330 328 326 325 322 319 317 314 312 313 313 309 302 297 294 292 292 292 290 284 277 271 266 263 261 257 253 251 251 253 254 255 256 255 253 252 251 250 249 248 247 246 245 245 247 248 249 250 251 246 239
339 339 339 337 337 337 337 336 337 338 337 337 338 338 337 339 339 337 340 343 335 327 330 333 334 335 335 335 334 334 334 334 333 332 330 328 328 327 326 324 323 321 318 318 317 310 302 299 298 296 294 293 290 283 275 269 262 256 254 254 253 253 253 255 256 256 257 256 255 253 253 253 252 251 250 247 243 240 239 241 241 243 247 246 241
340 340 338 336 336 336 335 335 336 337 337 337 337 338 339 341 339 338 341 338 329 330 334 336 336 337 337 337 337 336 335 334 334 332 330 330 330 329 328 327 325 325 322 319 314 307 303 304 304 301 297 295 291 283 273 265 258 250 246 246 250 253 255 257 258 259 259 259 258 257 255 257 257 254 251 246 242 238 234 233 234 235 238 240 239
340 338 337 336 335 334 334 335 337 337 336 336 337 339 340 340 339 339 340 333 329 333 336 337 338 339 339 339 338 336 334 334 333 332 332 332 332 331 330 329 328 327 325 322 318 315 314 313 309 304 299 296 292 282 271 261 253 247 243 243 247 252 255 259 261 261 260 260 261 261 260 261 261 258 254 249 243 238 234 231 230 228 229 231 231
339 336 335 334 334 334 335 337 337 337 336 336 338 340 340 340 340 341 339 332 331 335 338 338 339 339 339 339 338 336 335 334 334 334 333 333 333 332 332 331 330 328 327 326 324 322 322 319 311 305 300 296 292 282 270 260 249 245 243 243 247 252 255 258 261 260 259 258 259 261 262 263 263 260 257 253 247 242 237 235 234 229 225 226 227
338 334 332 333 335 336 336 336 337 336 337 337 338 340 340 339 341 342 339 333 334 338 340 340 339 339 339 339 338 336 335 334 334 334 334 335 335 334 334 333 330 329 328 327 325 323 321 316 308 305 302 296 292 283 270 259 248 243 242 243 250 257 259 260 261 259 257 256 257 258 260 263 265 263 258 252 247 246 244 238 235 233 226 224 227
335 331 332 334 336 337 336 336 337 338 338 337 337 339 339 339 342 343 339 336 338 340 341 340 340 340 340 340 340 337 335 335 335 335 335 336 336 335 336 335 332 329 328 327 327 325 320 314 310 309 304 297 293 287 274 262 251 246 245 248 254 260 262 260 259 257 257 257 257 258 260 262 264 264 262 254 242 240 245 242 235 231 227 224 226
332 331 334 337 339 340 339 339 341 342 341 337 336 338 340 341 343 343 340 339 341 342 342 341 341 341 340 341 340 339 337 336 336 337 338 338 338 338 337 337 333 330 328 328 327 324 319 315 314 312 306 298 294 291 282 269 260 253 251 252 254 258 260 259 257 254 255 256 256 258 259 260 264 265 264 258 242 231 238 244 237 227 224 225 227
331 334 338 340 342 342 342 343 344 344 342 339 338 340 341 342 343 342 341 341 341 342 342 341 341 341 341 341 341 340 340 339 339 340 341 340 340 339 338 338 335 331 329 328 326 322 318 316 315 312 307 299 294 293 288 276 267 260 256 255 255 255 255 255 255 254 254 256 257 258 257 258 262 264 263 255 237 222 228 240 240 229 225 226 228
333 337 341 342 343 344 344 345 346 346 343 342 340 341 343 344 343 342 342 341 341 341 342 342 342 342 341 341 342 342 342 343 342 342 343 342 341 340 339 338 335 332 328 325 324 323 319 316 314 309 305 301 296 295 294 286 276 267 261 258 256 253 251 251 252 253 254 256 257 258 259 256 253 253 255 251 236 220 220 233 239 233 227 227 227
335 339 342 343 344 344 345 346 347 346 345 343 342 342 343 344 344 343 342 341 342 342 342 343 343 343 342 342 344 345 346 347 346 345 343 342 341 340 339 338 336 332 326 323 324 325 322 319 314 307 303 303 301 299 298 294 285 273 263 259 255 251 251 250 250 250 252 253 254 255 258 256 247 242 243 245 240 225 218 227 235 233 228 227 229
338 342 343 343 343 344 345 347 348 347 346 345 343 343 344 345 345 344 342 342 343 343 343 343 344 343 343 343 344 347 349 349 348 347 343 340 340 341 340 338 335 330 325 324 325 325 324 323 318 308 303 303 302 301 300 294 285 272 259 255 253 251 251 251 252 251 250 253 256 257 258 255 247 241 237 237 238 232 223 226 234 236 232 227 225
341 343 343 343 343 344 346 348 348 348 347 347 345 344 345 346 344 343 342 342 344 344 343 344 344 343 343 343 345 348 351 351 349 346 343 340 341 341 338 335 333 329 328 329 330 327 325 325 322 316 311 308 305 304 300 292 282 269 253 245 246 249 250 249 251 252 254 257 259 259 259 254 246 243 241 237 237 234 226 226 231 234 231 225 222
342 342 343 344 343 344 346 348 350 350 348 348 348 345 345 345 344 343 343 343 344 344 344 344 345 344 344 344 346 350 353 352 349 346 343 343 343 341 337 334 334 334 333 332 332 329 326 324 325 323 320 318 314 308 300 289 278 266 251 238 236 242 245 245 249 256 261 263 261 255 251 246 236 238 244 241 238 235 228 221 223 227 228 228 228
342 342 343 344 344 345 347 348 350 350 348 349 350 348 346 345 344 343 344 344 344 344 344 345 345 345 345 346 348 352 354 352 348 346 345 345 343 340 338 338 339 339 336 333 332 331 328 325 324 325 324 324 321 311 299 287 272 263 255 239 232 238 241 237 242 255 266 266 255 238 224 222 229 240 246 241 236 232 224 215 212 216 223 227 228
342 343 344 344 345 347 347 347 349 350 348 350 352 352 348 345 344 344 344 345 345 344 344 345 345 345 346 348 350 353 353 350 348 348 348 347 344 341 341 342 342 339 336 334 332 332 331 330 330 332 330 326 324 322 318 315 298 279 269 248 232 233 237 231 232 244 263 269 236 214 210 234 253 257 250 241 235 231 224 218 216 220 225 227 225
342 343 344 345 346 347 347 347 347 348 348 350 353 353 350 346 345 345 345 345 346 345 344 346 346 346 347 350 352 353 351 349 349 349 349 348 347 346 345 344 342 340 337 335 333 333 333 333 336 341 341 334 336 7 20 20 11 353 334 302 238 221 218 220 224 233 247 261 250 238 252 265 262 250 230 219 218 220 220 220 219 219 220 218 215
343 344 345 346 347 347 347 346 346 346 348 350 353 353 351 349 348 347 347 347 347 346 346 347 348 347 348 351 354 353 350 349 350 350 348 348 348 349 347 344 344 341 335 332 332 331 332 333 335 339 341 340 353 31 33 26 17 11 10 360 305 219 204 203 212 223 236 250 255 259 271 270 250 223 207 201 198 202 208 209 204 201 201 202 206
343 344 345 346 346 346 346 345 345 345 347 350 353 353 352 350 349 349 349 349 348 347 347 348 348 348 349 352 354 353 351 351 351 350 349 349 349 349 346 343 345 342 333 332 335 333 332 334 338 339 339 338 349 15 19 10 354 337 335 354 348 250 198 194 197 209 227 242 248 252 261 261 238 218 216 219 218 219 221 220 218 216 214 215 218
343 343 344 345 346 346 345 344 344 344 347 351 353 353 352 351 350 350 351 351 349 348 348 349 349 348 351 353 354 352 352 352 351 351 351 350 352 354 353 350 349 343 335 345 352 348 339 334 335 341 343 333 331 352 13 11 355 326 298 323 342 312 179 179 181 195 215 229 236 237 240 239 231 225 223 223 223 224 226 229 233 235 234 234 236
343 343 344 345 346 346 345 344 343 344 347 351 353 353 352 351 350 351 352 353 352 350 349 349 349 349 352 354 354 353 353 353 352 353 352 351 352 355 0 6 4 352 343 357 5 9 6 354 343 343 348 349 352 1 10 12 4 333 283 274 290 203 168 167 169 177 184 190 200 205 201 199 204 210 213 215 217 218 221 226 232 236 238 239 240
Height
1528 1528 1528 1529 1529 1529 1529 1528 1528 1527 1527 1527 1526 1525 1525 1524 1523 1522 1521 1520 1518 1516 1514 1513 1511 1509 1507 1505 1503 1501 1500 1498 1496 1494 1492 1491 1489 1487 1486 1485 1483 1482 1480 1479 1477 1476 1475 1474 1473 1472 1472 1471 1470 1469 1469 1469 1468 1468 1467 1466 1464 1463 1463 1463 1463 1462 1459 1457 1456 1455 1454 1454 1453 1452 1451 1451 1451 1450 1449 1449 1449 1449 1449 1448 1448
1528 1529 1529 1529 1529 1528 1528 1528 1527 1527 1527 1526 1525 1525 1524 1523 1523 1521 1520 1519 1517 1515 1513 1511 1509 1507 1505 1503 1501 1499 1497 1495 1493 1492 1490 1488 1487 1485 1484 1482 1481 1479 1478 1476 1475 1473 1472 1471 1470 1469 1468 1467 1466 1465 1465 1464 1465 1465 1464 1463 1462 1461 1459 1460 1461 1460 1457 1455 1454 1451 1449 1450 1450 1449 1448 1447 1447 1447 1446 1446 1446 1446 1446 1446 1445
1528 1529 1529 1529 1529 1529 1528 1528 1528 1527 1527 1526 1525 1524 1524 1523 1522 1521 1519 1518 1516 1514 1512 1510 1508 1506 1504 1501 1499 1497 1495 1494 1491 1489 1487 1485 1484 1483 1481 1480 1478 1477 1475 1474 1472 1471 1469 1468 1467 1466 1465 1464 1463 1461 1461 1461 1461 1461 1461 1460 1459 1458 1456 1457 1458 1457 1456 1454 1453 1450 1446 1446 1446 1445 1444 1444 1444 1444 1444 1443 1443 1443 1443 1443 1442
1528 1528 1529 1529 1529 1529 1529 1528 1528 1527 1527 1526 1525 1523 1523 1522 1521 1520 1519 1517 1514 1512 1510 1508 1506 1504 1502 1499 1497 1495 1493 1492 1489 1488 1486 1483 1482 1480 1479 1477 1475 1474 1472 1471 1469 1468 1466 1465 1463 1462 1461 1461 1460 1458 1457 1457 1457 1457 1458 1457 1455 1454 1453 1453 1454 1454 1454 1454 1452 1448 1447 1446 1443 1442 1442 1441 1441 1441 1441 1441 1441 1441 1440 1440 1439
1528 1528 1529 1529 1529 1529 1529 1528 1528 1527 1526 1525 1524 1523 1521 1521 1520 1519 1517 1515 1513 1510 1508 1506 1504 1502 1499 1497 1495 1493 1491 1489 1487 1485 1483 1481 1479 1477 1476 1474 1473 1471 1470 1468 1466 1465 1463 1462 1460 1459 1458 1457 1456 1455 1454 1453 1454 1454 1454 1454 1452 1451 1449 1449 1449 1450 1450 1451 1449 1447 1446 1445 1442 1441 1440 1439 1438 1438 1438 1438 1438 1438 1438 1437 1437
1528 1528 1529 1529 1529 1529 1529 1528 1528 1527 1526 1525 1523 1522 1520 1520 1519 1517 1515 1513 1511 1508 1506 1504 1501 1499 1497 1494 1492 1490 1488 1486 1484 1482 1480 1478 1476 1475 1473 1471 1470 1468 1467 1465 1464 1462 1461 1459 1458 1456 1455 1453 1452 1451 1450 1450 1449 1450 1450 1450 1449 1448 1447 1445 1444 1446 1447 1446 1445 1443 1443 1442 1440 1440 1440 1437 1436 1436 1436 1436 1436 1436 1435 1434 1434
1529 1529 1529 1529 1529 1529 1528 1528 1527 1526 1525 1524 1522 1521 1520 1519 1517 1515 1513 1511 1509 1506 1504 1502 1499 1497 1495 1492 1490 1488 1485 1483 1481 1479 1477 1475 1473 1471 1470 1468 1467 1465 1464 1462 1461 1459 1458 1456 1455 1453 1452 1450 1449 1447 1446 1446 1446 1445 1446 1445 1445 1444 1444 1442 1440 1442 1442 1441 1441 1440 1439 1439 1438 1439 1438 1437 1434 1432 1433 1433 1433 1433 1432 1431 1431
1529 1529 1529 1529 1529 1529 1528 1527 1526 1525 1524 1523 1522 1521 1519 1517 1516 1513 1512 1509 1507 1504 1502 1500 1497 1495 1492 1490 1488 1486 1483 1480 1478 1476 1474 1472 1470 1468 1466 1465 1464 1462 1460 1459 1457 1456 1454 1452 1451 1449 1448 1447 1446 1444 1443 1442 1442 1442 1442 1441 1441 1440 1440 1438 1437 1438 1437 1437 1438 1438 1436 1435 1435 1435 1435 1436 1434 1430 1429 1430 1430 1430 1429 1428 1427
1529 1529 1529 1529 1529 1529 1528 1527 1526 1525 1524 1522 1521 1520 1518 1516 1514 1512 1510 1508 1505 1503 1500 1498 1496 1493 1490 1487 1484 1482 1480 1477 1474 1472 1470 1468 1466 1464 1463 1461 1460 1458 1456 1454 1453 1451 1449 1448 1446 1445 1443 1442 1442 1440 1439 1439 1438 1438 1438 1437 1437 1436 1435 1434 1433 1433 1433 1433 1434 1434 1433 1432 1432 1431 1432 1432 1432 1429 1426 1425 1427 1426 1425 1425 1425
1529 1530 1529 1529 1529 1528 1528 1526 1525 1524 1523 1521 1520 1519 1517 1515 1513 1511 1509 1506 1503 1501 1498 1495 1493 1490 1487 1484 1481 1478 1476 1473 1471 1469 1467 1465 1462 1460 1459 1457 1455 1454 1452 1450 1448 1446 1445 1443 1442 1441 1439 1438 1437 1436 1435 1434 1434 1433 1433 1433 1432 1431 1431 1430 1429 1428 1429 1429 1429 1430 1429 1429 1428 1427 1427 1427 1428 1426 1423 1422 1423 1423 1421 1420 1421
1530 1530 1530 1529 1529 1528 1527 1525 1524 1523 1522 1520 1519 1517 1516 1514 1511 1509 1507 1504 1501 1498 1496 1493 1490 1487 1484 1481 1478 1475 1472 1470 1467 1464 1463 1461 1458 1456 1454 1452 1451 1449 1447 1445 1444 1442 1440 1439 1438 1437 1435 1434 1433 1432 1431 1430 1429 1429 1429 1429 1428 1427 1427 1426 1425 1424 1424 1424 1424 1425 1424 1424 1424 1423 1423 1424 1423 1422 1421 1419 1420 1421 1418 1416 1417
1530 1530 1529 1529 1528 1527 1526 1525 1523 1522 1520 1519 1517 1516 1514 1511 1509 1506 1504 1501 1498 1496 1493 1490 1488 1485 1482 1479 1475 1472 1469 1466 1463 1460 1458 1456 1454 1451 1449 1447 1445 1444 1442 1441 1439 1438 1436 1434 1433 1432 1431 1430 1429 1428 1427 1426 1425 1425 1424 1424 1423 1422 1422 1422 1421 1419 1419 1419 1419 1419 1419 1420 1420 1419 1419 1421 1420 1419 1419 1417 1417 1418 1416 1413 1413
1530 1530 1529 1529 1527 1526 1525 1523 1522 1520 1518 1516 1515 1513 1511 1509 1507 1504 1501 1499 1496 1493 1490 1487 1485 1482 1479 1476 1473 1469 1466 1463 1460 1457 1454 1452 1449 1447 1445 1443 1441 1439 1438 1436 1435 1434 1432 1430 1429 1428 1426 1425 1424 1423 1422 1422 1421 1420 1419 1418 1418 1417 1417 1417 1416 1415 1415 1415 1414 1415 1415 1415 1415 1415 1416 1417 1417 1417 1417 1414 1414 1415 1413 1410 1411
1531 1531 1529 1528 1527 1526 1524 1522 1520 1518 1516 1514 1512 1511 1508 1506 1504 1502 1499 1496 1493 1490 1487 1484 1481 1478 1475 1472 1469 1466 1463 1460 1457 1454 1451 1448 1446 1443 1441 1439 1437 1434 1433 1432 1431 1429 1427 1425 1424 1423 1421 1420 1419 1418 1417 1417 1416 1415 1414 1413 1413 1412 1412 1412 1411 1411 1411 1410 1410 1410 1410 1410 1410 1411 1412 1413 1413 1414 1413 1412 1412 1412 1410 1408 1408
1531 1530 1529 1528 1526 1525 1522 1520 1519 1517 1515 1513 1511 1509 1506 1504 1501 1498 1495 1492 1489 1486 1482 1480 1476 1473 1471 1468 1465 1463 1460 1457 1454 1451 1448 1445 1443 1440 1437 1435 1433 1430 1429 1427 1426 1425 1423 1421 1419 1418 1417 1416 1414 1413 1413 1412 1411 1410 1409 1408 1407 1407 1407 1407 1406 1406 1406 1406 1406 1406 1405 1406 1406 1407 1407 1408 1409 1410 1410 1410 1410 1409 1407 1405 1405
1531 1529 1528 1527 1525 1523 1520 1518 1517 1515 1513 1511 1509 1506 1503 1500 1497 1494 1492 1488 1485 1482 1479 1475 1472 1469 1466 1464 1461 1459 1456 1454 1450 1447 1444 1442 1439 1436 1433 1431 1428 1426 1424 1423 1421 1420 1418 1416 1415 1413 1412 1411 1409 1409 1408 1407 1406 1405 1403 1402 1402 1402 1402 1401 1401 1401 1401 1401 1401 1401 1401 1401 1401 1402 1403 1403 1404 1406 1407 1407 1407 1406 1405 1403 1402
1529 1527 1525 1523 1521 1519 1518 1516 1515 1513 1511 1509 1506 1504 1501 1498 1494 1491 1487 1484 1481 1478 1474 1471 1468 1465 1462 1459 1457 1455 1452 1449 1446 1443 1440 1438 1435 1432 1430 1427 1424 1422 1420 1418 1417 1415 1413 1411 1409 1408 1407 1405 1404 1403 1402 1402 1401 1399 1398 1397 1396 1396 1397 1396 1396 1396 1396 1396 1397 1397 1397 1396 1397 1398 1399 1399 1400 1401 1402 1403 1403 1403 1402 1401 1400
1527 1524 1522 1520 1518 1517 1516 1515 1513 1512 1510 1507 1505 1502 1500 1496 1493 1488 1484 1480 1477 1474 1470 1467 1464 1461 1457 1455 1453 1451 1448 1445 1442 1439 1436 1434 1431 1428 1425 1422 1420 1418 1416 1414 1412 1409 1407 1406 1404 1402 1401 1400 1398 1397 1396 1396 1395 1394 1392 1392 1391 1392 1391 1391 1391 1391 1391 1392 1392 1392 1393 1392 1392 1394 1394 1395 1396 1397 1398 1399 1399 1399 1399 1398 1398
1524 1522 1520 1519 1518 1517 1515 1514 1512 1510 1508 1506 1503 1500 1497 1493 1490 1485 1481 1477 1474 1470 1467 1464 1460 1458 1455 1452 1450 1447 1444 1441 1438 1435 1433 1430 1427 1424 1421 1418 1415 1413 1411 1409 1406 1404 1402 1400 1399 1397 1396 1395 1393 1392 1391 1390 1389 1387 1387 1386 1386 1387 1386 1385 1386 1387 1387 1388 1387 1388 1388 1388 1388 1389 1390 1391 1391 1392 1393 1394 1395 1395 1395 1394 1395
1523 1522 1520 1518 1517 1516 1514 1513 1511 1509 1506 1503 1500 1497 1493 1490 1486 1482 1478 1474 1471 1467 1464 1460 1456 1454 1451 1449 1446 1443 1440 1437 1434 1432 1429 1426 1423 1420 1417 1414 1411 1409 1407 1404 1401 1399 1398 1396 1394 1393 1391 1390 1389 1387 1386 1385 1383 1381 1381 1381 1381 1381 1381 1380 1381 1382 1383 1383 1383 1383 1383 1384 1385 1385 1386 1386 1387 1388 1389 1390 1391 1391 1391 1391 1391
1522 1521 1519 1518 1516 1515 1513 1512 1509 1507 1504 1501 1498 1494 1491 1487 1483 1478 1474 1470 1467 1463 1460 1456 1453 1450 1447 1444 1440 1437 1435 1432 1429 1427 1424 1422 1419 1416 1413 1410 1407 1404 1402 1399 1397 1396 1394 1391 1390 1388 1386 1385 1383 1383 1382 1380 1378 1376 1376 1376 1376 1376 1376 1376 1377 1378 1378 1378 1379 1379 1379 1380 1381 1381 1381 1382 1383 1383 1384 1385 1386 1387 1387 1387 1387
1522 1521 1519 1517 1515 1514 1512 1510 1507 1504 1501 1498 1495 1491 1487 1483 1479 1475 1471 1467 1463 1459 1456 1453 1449 1446 1442 1439 1435 1432 1429 1426 1424 1422 1420 1417 1414 1411 1409 1405 1403 1400 1398 1396 1393 1391 1389 1387 1384 1382 1381 1379 1378 1377 1377 1375 1374 1372 1371 1371 1371 1371 1371 1371 1372 1373 1373 1374 1374 1375 1375 1376 1378 1377 1377 1378 1379 1379 1380 1381 1382 1382 1382 1383 1383
1522 1520 1518 1516 1514 1513 1510 1507 1504 1502 1498 1495 1491 1487 1483 1479 1475 1471 1467 1463 1460 1456 1453 1450 1445 1441 1438 1434 1431 1428 1425 1423 1420 1418 1416 1413 1410 1407 1405 1401 1398 1396 1393 1391 1389 1386 1384 1381 1379 1377 1375 1374 1373 1372 1371 1370 1369 1367 1366 1366 1366 1366 1366 1367 1368 1368 1369 1370 1370 1370 1371 1372 1374 1374 1373 1374 1375 1375 1376 1377 1378 1378 1378 1379 1380
1521 1519 1517 1515 1513 1511 1508 1505 1502 1499 1495 1491 1487 1483 1480 1476 1472 1467 1463 1459 1456 1453 1450 1445 1440 1436 1433 1430 1427 1425 1422 1420 1417 1415 1412 1409 1406 1403 1401 1398 1394 1391 1388 1386 1383 1381 1378 1376 1373 1372 1370 1369 1367 1366 1366 1364 1363 1362 1361 1361 1361 1362 1362 1362 1363 1364 1365 1365 1366 1366 1367 1368 1370 1370 1370 1371 1371 1371 1372 1373 1374 1375 1375 1375 1376
1520 1518 1516 1514 1512 1509 1507 1503 1500 1496 1492 1488 1484 1480 1476 1472 1469 1464 1460 1456 1454 1450 1445 1441 1436 1432 1429 1428 1425 1423 1420 1417 1413 1410 1408 1404 1401 1398 1395 1393 1390 1387 1384 1381 1379 1376 1373 1371 1368 1367 1365 1364 1362 1361 1360 1358 1357 1357 1356 1356 1356 1357 1357 1357 1358 1359 1360 1361 1361 1362 1363 1364 1365 1365 1366 1367 1368 1368 1369 1369 1370 1371 1372 1372 1373
1519 1517 1515 1513 1510 1508 1505 1501 1497 1494 1490 1486 1482 1478 1474 1469 1466 1463 1459 1455 1451 1447 1442 1437 1433 1430 1428 1426 1424 1421 1417 1412 1408 1405 1402 1398 1395 1391 1388 1385 1383 1381 1378 1375 1373 1371 1368 1366 1363 1362 1360 1358 1356 1355 1354 1352 1352 1351 1351 1351 1351 1352 1352 1353 1354 1355 1355 1356 1357 1358 1359 1360 1361 1361 1362 1363 1364 1365 1366 1366 1367 1368 1368 1369 1370
1519 1516 1514 1511 1509 1506 1502 1499 1496 1492 1489 1485 1481 1476 1472 1467 1463 1461 1458 1454 1448 1443 1439 1435 1432 1430 1427 1425 1421 1417 1413 1409 1404 1400 1396 1391 1387 1383 1380 1377 1375 1373 1370 1368 1366 1364 1362 1360 1358 1356 1355 1353 1351 1349 1347 1346 1346 1346 1345 1346 1346 1347 1348 1349 1349 1350 1351 1352 1353 1354 1355 1356 1357 1357 1358 1360 1361 1362 1363 1363 1364 1365 1366 1366 1367
1518 1515 1513 1509 1506 1503 1500 1497 1494 1490 1486 1482 1478 1474 1470 1465 1462 1459 1455 1450 1445 1440 1436 1434 1432 1428 1425 1421 1416 1412 1408 1404 1399 1394 1389 1384 1380 1376 1372 1369 1367 1366 1363 1361 1359 1358 1356 1354 1352 1350 1349 1347 1345 1343 1342 1340 1340 1340 1341 1341 1342 1343 1344 1344 1345 1346 1347 1348 1349 1350 1351 1352 1353 1354 1355 1356 1357 1358 1359 1360 1361 1362 1363 1363 1364
1515 1513 1511 1508 1505 1502 1498 1495 1491 1487 1482 1478 1474 1470 1466 1464 1460 1456 1451 1447 1442 1438 1436 1433 1430 1425 1420 1415 1411 1406 1402 1397 1392 1387 1382 1378 1373 1370 1367 1365 1362 1359 1356 1354 1352 1350 1349 1347 1346 1344 1343 1341 1339 1337 1336 1335 1335 1335 1336 1337 1338 1339 1340 1341 1341 1342 1343 1344 1345 1346 1347 1348 1349 1350 1352 1353 1354 1355 1355 1356 1357 1358 1359 1360 1361
1514 1512 1509 1506 1503 1500 1496 1492 1488 1484 1480 1475 1471 1467 1464 1461 1457 1452 1448 1444 1440 1437 1435 1431 1426 1421 1416 1411 1406 1402 1397 1392 1387 1382 1377 1373 1369 1365 1362 1359 1356 1352 1349 1347 1345 1344 1343 1341 1340 1338 1336 1335 1333 1331 1331 1330 1330 1330 1331 1333 1334 1335 1336 1337 1338 1338 1339 1340 1341 1341 1342 1344 1345 1346 1348 1349 1350 1351 1352 1352 1353 1355 1355 1356 1358
1513 1510 1507 1504 1501 1498 1494 1490 1486 1483 1479 1474 1470 1466 1463 1459 1454 1450 1445 1442 1439 1437 1433 1428 1422 1417 1412 1407 1402 1397 1392 1388 1383 1378 1373 1369 1365 1361 1357 1353 1350 1346 1344 1342 1340 1339 1338 1336 1334 1332 1330 1329 1327 1326 1326 1326 1326 1327 1327 1328 1329 1331 1332 1333 1334 1335 1335 1336 1337 1337 1338 1339 1341 1342 1343 1345 1347 1348 1349 1350 1350 1351 1352 1353 1354
1511 1508 1505 1502 1499 1495 1492 1488 1484 1481 1477 1473 1468 1464 1460 1455 1451 1447 1443 1440 1438 1434 1429 1424 1419 1413 1408 1403 1398 1393 1388 1383 1379 1374 1370 1366 1361 1357 1352 1348 1345 1341 1339 1337 1336 1335 1333 1331 1328 1326 1324 1323 1322 1322 1322 1322 1322 1324 1325 1325 1325 1326 1328 1328 1330 1330 1331 1332 1333 1334 1334 1335 1336 1338 1339 1341 1342 1344 1346 1347 1348 1348 1349 1350 1351
1510 1507 1504 1500 1497 1494 1490 1486 1482 1479 1475 1471 1467 1463 1458 1454 1450 1445 1442 1439 1435 1431 1426 1421 1415 1410 1405 1400 1394 1389 1384 1379 1375 1371 1366 1362 1357 1352 1349 1345 1341 1338 1336 1334 1332 1330 1328 1326 1324 1321 1320 1319 1318 1317 1318 1318 1319 1320 1322 1322 1322 1322 1323 1324 1325 1326 1327 1328 1329 1330 1331 1332 1333 1334 1335 1336 1337 1339 1341 1343 1344 1346 1347 1347 1348
1508 1505 1503 1499 1495 1492 1488 1485 1481 1477 1473 1470 1466 1462 1457 1453 1448 1443 1440 1437 1433 1428 1423 1417 1412 1407 1402 1397 1391 1386 1381 1376 1371 1367 1362 1358 1353 1349 1346 1342 1338 1335 1333 1330 1328 1326 1323 1321 1319 1318 1316 1315 1314 1314 1314 1315 1316 1317 1318 1319 1319 1319 1320 1321 1321 1322 1324 1325 1326 1327 1328 1328 1329 1330 1331 1332 1333 1335 1337 1338 1340 1342 1343 1344 1346
1506 1503 1500 1497 1493 1489 1485 1482 1479 1475 1471 1467 1463 1459 1454 1451 1446 1441 1438 1435 1430 1425 1420 1414 1409 1404 1399 1393 1388 1382 1377 1372 1368 1363 1359 1355 1351 1346 1343 1339 1336 1333 1330 1327 1325 1322 1319 1318 1316 1315 1313 1311 1310 1310 1311 1312 1313 1314 1315 1316 1317 1316 1317 1317 1318 1319 1320 1321 1322 1324 1324 1325 1326 1326 1327 1328 1329 1330 1332 1334 1335 1337 1339 1341 1342
1506 1502 1498 1495 1492 1488 1484 1480 1477 1474 1470 1465 1461 1456 1452 1447 1443 1439 1435 1431 1427 1421 1416 1411 1406 1401 1396 1391 1385 1379 1374 1369 1364 1360 1356 1352 1348 1344 1341 1337 1334 1331 1328 1326 1323 1320 1317 1315 1314 1312 1310 1308 1307 1307 1308 1309 1310 1311 1312 1313 1313 1313 1313 1314 1314 1315 1316 1318 1319 1320 1321 1322 1322 1323 1324 1325 1327 1328 1329 1330 1331 1333 1335 1337 1338
1506 1502 1499 1495 1492 1488 1484 1480 1476 1472 1468 1464 1459 1454 1449 1445 1440 1436 1432 1428 1423 1418 1413 1408 1403 1399 1394 1389 1383 1377 1371 1366 1361 1357 1352 1349 1346 1342 1339 1335 1332 1328 1326 1323 1320 1317 1315 1313 1311 1309 1307 1305 1304 1305 1305 1306 1307 1308 1309 1310 1310 1310 1310 1311 1311 1312 1313 1314 1316 1317 1318 1319 1319 1319 1320 1322 1324 1326 1326 1326 1327 1329 1331 1333 1334
1503 1500 1497 1493 1489 1486 1482 1478 1474 1470 1466 1462 1457 1452 1447 1442 1438 1433 1429 1425 1420 1416 1411 1406 1401 1396 1391 1386 1381 1375 1369 1364 1359 1355 1350 1346 1343 1340 1336 1333 1330 1326 1323 1320 1317 1315 1312 1310 1308 1306 1304 1303 1302 1302 1303 1303 1304 1305 1306 1307 1308 1307 1307 1307 1308 1309 1310 1311 1312 1313 1314 1315 1315 1316 1317 1319 1320 1323 1324 1324 1325 1327 1328 1329 1331
1502 1498 1494 1491 1487 1483 1479 1476 1471 1467 1463 1459 1454 1450 1445 1440 1436 1432 1427 1423 1418 1413 1408 1403 1398 1394 1389 1384 1379 1374 1368 1363 1358 1353 1349 1345 1341 1337 1334 1331 1328 1325 1321 1318 1316 1313 1310 1308 1306 1304 1302 1301 1300 1300 1300 1301 1301 1302 1304 1304 1305 1305 1305 1305 1305 1306 1307 1307 1308 1310 1311 1311 1312 1312 1314 1315 1317 1319 1321 1322 1323 1325 1325 1326 1328
1498 1495 1492 1488 1484 1480 1476 1472 1468 1464 1460 1456 1451 1447 1443 1438 1434 1430 1426 1421 1416 1411 1407 1402 1397 1392 1387 1382 1377 1372 1367 1362 1357 1352 1348 1344 1340 1335 1332 1328 1325 1322 1318 1316 1314 1311 1307 1305 1303 1302 1300 1300 1298 1298 1298 1298 1298 1299 1300 1302 1302 1302 1302 1303 1303 1304 1304 1305 1305 1306 1306 1308 1309 1310 1311 1313 1314 1316 1318 1320 1321 1322 1322 1324 1327
1496 1492 1488 1485 1481 1478 1475 1471 1467 1463 1458 1454 1449 1444 1440 1436 1432 1428 1424 1419 1415 1410 1405 1399 1394 1389 1384 1379 1374 1369 1364 1360 1355 1351 1346 1342 1339 1335 1330 1326 1323 1319 1317 1314 1311 1308 1305 1302 1301 1299 1298 1297 1296 1295 1295 1295 1295 1296 1297 1298 1299 1299 1299 1300 1300 1301 1302 1302 1302 1302 1303 1304 1306 1308 1309 1311 1312 1314 1316 1318 1318 1318 1320 1323 1326
1493 1490 1486 1482 1479 1476 1473 1470 1466 1462 1457 1452 1447 1442 1438 1433 1429 1425 1421 1417 1412 1407 1402 1397 1392 1386 1381 1376 1371 1367 1362 1357 1352 1348 1344 1340 1336 1333 1329 1325 1321 1318 1315 1312 1309 1306 1303 1300 1299 1297 1296 1295 1294 1293 1292 1292 1292 1292 1293 1294 1295 1296 1297 1297 1297 1298 1298 1298 1299 1299 1299 1301 1302 1304 1306 1309 1311 1312 1314 1316 1316 1317 1320 1323 1325
1491 1488 1484 1481 1477 1473 1470 1467 1464 1460 1455 1451 1445 1440 1436 1431 1427 1423 1419 1415 1410 1405 1400 1395 1389 1384 1379 1374 1369 1364 1359 1354 1350 1346 1342 1338 1333 1330 1326 1323 1320 1317 1313 1309 1306 1304 1301 1298 1296 1295 1294 1293 1291 1290 1290 1289 1289 1289 1290 1290 1292 1293 1295 1295 1295 1295 1295 1295 1296 1296 1296 1298 1299 1301 1303 1305 1307 1310 1312 1313 1314 1316 1319 1321 1323
1489 1486 1483 1479 1475 1472 1468 1465 1462 1458 1453 1449 1444 1438 1434 1429 1425 1421 1416 1411 1407 1402 1397 1392 1387 1382 1377 1372 1367 1362 1357 1353 1349 1345 1341 1336 1331 1328 1324 1321 1317 1314 1311 1308 1305 1302 1300 1297 1295 1293 1291 1290 1289 1288 1287 1287 1286 1286 1286 1287 1288 1289 1292 1293 1292 1292 1293 1293 1293 1293 1294 1296 1297 1299 1301 1303 1305 1307 1309 1310 1312 1315 1317 1319 1321
1487 1484 1481 1477 1474 1470 1466 1462 1460 1456 1452 1448 1444 1438 1432 1428 1423 1419 1414 1409 1404 1399 1395 1390 1385 1380 1375 1370 1365 1360 1356 1352 1348 1344 1340 1334 1330 1326 1322 1318 1315 1312 1309 1306 1304 1301 1299 1296 1294 1292 1290 1288 1287 1286 1285 1284 1284 1284 1283 1284 1284 1286 1288 1290 1291 1291 1291 1291 1291 1292 1293 1294 1296 1298 1300 1302 1303 1305 1306 1308 1310 1313 1315 1317 1318
1485 1482 1478 1475 1471 1468 1464 1460 1457 1454 1450 1446 1442 1438 1432 1427 1422 1417 1413 1408 1402 1397 1392 1388 1383 1378 1373 1368 1363 1358 1355 1351 1347 1344 1339 1335 1330 1326 1321 1317 1314 1311 1308 1305 1303 1301 1298 1296 1293 1291 1289 1287 1286 1285 1284 1283 1283 1282 1282 1282 1282 1283 1285 1287 1289 1290 1290 1290 1291 1292 1293 1294 1296 1297 1299 1300 1302 1303 1304 1306 1308 1310 1312 1314 1316
1484 1480 1477 1473 1469 1465 1461 1457 1454 1451 1448 1444 1440 1436 1432 1427 1422 1416 1411 1406 1401 1396 1391 1386 1381 1376 1371 1366 1361 1357 1354 1350 1345 1341 1338 1334 1329 1325 1321 1317 1313 1310 1307 1304 1302 1300 1298 1296 1293 1291 1288 1287 1285 1284 1284 1283 1283 1283 1282 1281 1280 1281 1283 1285 1287 1288 1289 1290 1291 1292 1293 1294 1295 1296 1297 1298 1300 1301 1303 1304 1306 1308 1310 1312 1313
1483 1479 1475 1472 1468 1464 1460 1457 1453 1449 1446 1442 1438 1434 1430 1425 1420 1415 1410 1404 1399 1395 1390 1384 1379 1374 1370 1365 1361 1357 1353 1349 1344 1340 1336 1333 1329 1324 1320 1317 1314 1311 1308 1304 1302 1300 1298 1296 1293 1291 1289 1288 1286 1285 1284 1284 1284 1284 1283 1281 1280 1280 1281 1283 1285 1287 1288 1289 1290 1292 1293 1294 1295 1296 1296 1297 1299 1300 1301 1303 1304 1306 1308 1309 1311
1481 1478 1474 1471 1467 1463 1459 1455 1452 1448 1444 1440 1437 1433 1428 1424 1419 1413 1408 1403 1397 1393 1388 1383 1378 1373 1369 1364 1360 1357 1353 1349 1343 1338 1334 1331 1329 1326 1321 1317 1314 1312 1309 1306 1303 1300 1297 1295 1293 1291 1290 1288 1287 1286 1285 1284 1284 1284 1283 1282 1281 1281 1281 1283 1285 1286 1288 1289 1290 1291 1292 1293 1294 1295 1296 1297 1298 1300 1301 1302 1303 1305 1306 1308 1309
1479 1476 1473 1470 1466 1462 1458 1454 1451 1447 1443 1439 1435 1431 1427 1422 1418 1413 1408 1402 1396 1391 1386 1381 1377 1372 1368 1363 1359 1356 1352 1348 1344 1339 1333 1327 1325 1323 1322 1318 1314 1311 1309 1307 1304 1301 1298 1295 1293 1292 1291 1290 1288 1287 1286 1284 1284 1285 1284 1283 1283 1282 1282 1284 1286 1287 1288 1288 1289 1291 1292 1293 1294 1295 1296 1297 1298 1299 1300 1301 1303 1304 1305 1307 1308
1477 1474 1470 1467 1464 1461 1457 1453 1449 1445 1441 1437 1434 1429 1425 1421 1417 1412 1408 1403 1397 1391 1385 1380 1376 1372 1367 1363 1359 1356 1352 1348 1344 1340 1335 1328 1322 1318 1317 1316 1313 1310 1307 1306 1304 1301 1299 1297 1295 1293 1292 1291 1289 1288 1287 1285 1285 1285 1284 1284 1284 1284 1284 1285 1286 1287 1288 1288 1289 1290 1291 1292 1293 1294 1296 1297 1298 1299 1300 1301 1302 1303 1304 1305 1306